timestamp,wind_dir_avg,wind_spd_max_dir,wind_spd_avg,wind_spd_gust,battery_voltage,lat,long
2018-06-08 00:00:00+00:00,227.0,227.0,6.9,7.36,,47.59359,-54.27349
2018-06-08 00:10:00+00:00,222.0,224.0,6.76,7.36,,47.59359,-54.27349
2018-06-08 00:20:00+00:00,218.0,219.0,5.65,6.56,,47.59359,-54.27349
2018-06-08 00:30:00+00:00,212.0,212.0,4.67,5.47,,47.59359,-54.27349
2018-06-08 00:40:00+00:00,223.0,222.0,5.31,5.71,,47.59359,-54.27349
2018-06-08 00:50:00+00:00,230.0,231.0,5.3,5.88,,47.59359,-54.27349
2018-06-08 01:00:00+00:00,228.0,228.0,4.73,5.18,,47.59359,-54.27349
2018-06-08 01:10:00+00:00,216.0,214.0,4.76,5.11,,47.59359,-54.27349
2018-06-08 01:20:00+00:00,217.0,221.0,4.25,4.66,,47.59359,-54.27349
2018-06-08 01:30:00+00:00,218.0,219.0,5.47,6.03,,47.59359,-54.27349
2018-06-08 01:40:00+00:00,225.0,224.0,7.3,7.8,,47.59359,-54.27349
2018-06-08 01:50:00+00:00,219.0,220.0,7.19,7.74,,47.59359,-54.27349
2018-06-08 02:00:00+00:00,221.0,226.0,6.55,7.45,,47.59359,-54.27349
2018-06-08 02:10:00+00:00,224.0,223.0,7.46,8.28,,47.59359,-54.27349
2018-06-08 02:20:00+00:00,221.0,221.0,7.55,7.99,,47.59359,-54.27349
2018-06-08 02:30:00+00:00,222.0,226.0,7.82,8.51,,47.59359,-54.27349
2018-06-08 02:40:00+00:00,226.0,228.0,7.34,7.95,,47.59359,-54.27349
2018-06-08 02:50:00+00:00,228.0,229.0,5.76,6.59,,47.59359,-54.27349
2018-06-08 03:00:00+00:00,225.0,223.0,6.46,6.95,,47.59359,-54.27349
2018-06-08 03:10:00+00:00,223.0,221.0,6.16,6.98,,47.59359,-54.27349
2018-06-08 03:20:00+00:00,218.0,217.0,6.18,6.75,,47.59359,-54.27349
2018-06-08 03:30:00+00:00,220.0,220.0,6.23,6.57,,47.59359,-54.27349
2018-06-08 03:40:00+00:00,219.0,220.0,5.33,5.94,,47.59359,-54.27349
2018-06-08 03:50:00+00:00,218.0,218.0,5.04,5.54,,47.59359,-54.27349
2018-06-08 04:00:00+00:00,217.0,218.0,5.49,5.84,,47.59359,-54.27349
2018-06-08 04:10:00+00:00,217.0,216.0,5.84,6.34,,47.59359,-54.27349
2018-06-08 04:20:00+00:00,220.0,214.0,5.07,6.57,,47.59359,-54.27349
2018-06-08 05:30:00+00:00,224.0,229.0,5.2,5.76,,47.59359,-54.27349
2018-06-08 05:40:00+00:00,218.0,216.0,6.13,6.98,,47.59359,-54.27349
2018-06-08 05:50:00+00:00,228.0,229.0,5.65,6.29,,47.59359,-54.27349
2018-06-08 06:00:00+00:00,225.0,225.0,6.09,6.97,,47.59359,-54.27349
2018-06-08 06:10:00+00:00,226.0,224.0,5.38,6.17,,47.59359,-54.27349
2018-06-08 06:20:00+00:00,222.0,221.0,5.54,6.17,,47.59359,-54.27349
2018-06-08 06:30:00+00:00,227.0,223.0,6.12,6.55,,47.59359,-54.27349
2018-06-08 06:40:00+00:00,234.0,237.0,5.22,5.86,,47.59359,-54.27349
2018-06-08 06:50:00+00:00,230.0,232.0,5.22,6.3,,47.59359,-54.27349
2018-06-08 07:00:00+00:00,233.0,232.0,5.58,6.04,,47.59359,-54.27349
2018-06-08 07:10:00+00:00,235.0,235.0,5.05,5.74,,47.59359,-54.27349
2018-06-08 07:20:00+00:00,224.0,226.0,5.08,5.67,,47.59359,-54.27349
2018-06-08 07:30:00+00:00,224.0,225.0,4.66,5.01,,47.59359,-54.27349
2018-06-08 07:40:00+00:00,228.0,229.0,5.01,6.03,,47.59359,-54.27349
2018-06-08 07:50:00+00:00,235.0,233.0,5.26,5.85,,47.59359,-54.27349
2018-06-08 08:00:00+00:00,235.0,237.0,4.82,5.72,,47.59359,-54.27349
2018-06-08 08:10:00+00:00,236.0,235.0,5.4,6.14,,47.59359,-54.27349
2018-06-08 08:20:00+00:00,227.0,234.0,5.82,6.22,,47.59359,-54.27349
2018-06-08 08:30:00+00:00,223.0,219.0,5.89,6.5,,47.59359,-54.27349
2018-06-08 08:40:00+00:00,226.0,229.0,5.49,6.08,,47.59359,-54.27349
2018-06-08 08:50:00+00:00,224.0,223.0,5.4,6.19,,47.59359,-54.27349
2018-06-08 09:00:00+00:00,224.0,226.0,5.78,6.12,,47.59359,-54.27349
2018-06-08 09:10:00+00:00,224.0,220.0,6.07,6.72,,47.59359,-54.27349
2018-06-08 09:20:00+00:00,228.0,225.0,5.28,5.86,,47.59359,-54.27349
2018-06-08 09:30:00+00:00,229.0,226.0,5.48,6.07,,47.59359,-54.27349
2018-06-08 09:40:00+00:00,229.0,227.0,5.96,6.71,,47.59359,-54.27349
2018-06-08 09:50:00+00:00,226.0,229.0,5.89,6.32,,47.59359,-54.27349
2018-06-08 10:00:00+00:00,227.0,227.0,5.85,6.21,,47.59359,-54.27349
2018-06-08 10:10:00+00:00,229.0,231.0,6.43,7.37,,47.59359,-54.27349
2018-06-08 10:20:00+00:00,229.0,229.0,5.75,6.59,,47.59359,-54.27349
2018-06-08 10:30:00+00:00,224.0,222.0,5.32,5.98,,47.59359,-54.27349
2018-06-08 10:40:00+00:00,221.0,221.0,4.53,5.28,,47.59359,-54.27349
2018-06-08 10:50:00+00:00,218.0,221.0,5.03,5.8,,47.59359,-54.27349
2018-06-08 11:00:00+00:00,213.0,213.0,4.92,5.51,,47.59359,-54.27349
2018-06-08 11:10:00+00:00,217.0,213.0,5.52,6.09,,47.59359,-54.27349
2018-06-08 11:30:00+00:00,209.0,209.0,6.77,7.19,,47.59359,-54.27349
2018-06-08 11:40:00+00:00,216.0,217.0,6.67,7.26,,47.59359,-54.27349
2018-06-08 11:50:00+00:00,227.0,231.0,6.74,7.12,,47.59359,-54.27349
2018-06-08 12:00:00+00:00,225.0,228.0,6.92,7.59,,47.59359,-54.27349
2018-06-08 12:10:00+00:00,221.0,221.0,6.92,7.68,,47.59359,-54.27349
2018-06-08 12:20:00+00:00,219.0,219.0,8.84,9.61,,47.59359,-54.27349
2018-06-08 12:30:00+00:00,217.0,217.0,7.71,8.89,,47.59359,-54.27349
2018-06-08 12:40:00+00:00,216.0,216.0,8.96,9.81,,47.59359,-54.27349
2018-06-08 12:50:00+00:00,219.0,221.0,10.02,10.86,,47.59359,-54.27349
2018-06-08 13:00:00+00:00,221.0,223.0,9.51,10.28,,47.59359,-54.27349
2018-06-08 13:10:00+00:00,218.0,217.0,9.28,9.79,,47.59359,-54.27349
2018-06-08 13:20:00+00:00,216.0,216.0,7.84,8.87,,47.59359,-54.27349
2018-06-08 13:30:00+00:00,217.0,217.0,9.55,10.25,,47.59359,-54.27349
2018-06-08 13:40:00+00:00,216.0,216.0,9.02,9.71,,47.59359,-54.27349
2018-06-08 13:50:00+00:00,217.0,218.0,9.83,10.85,,47.59359,-54.27349
2018-06-08 14:00:00+00:00,221.0,221.0,9.85,10.84,,47.59359,-54.27349
2018-06-08 14:10:00+00:00,218.0,218.0,10.27,10.95,,47.59359,-54.27349
2018-06-08 14:20:00+00:00,218.0,216.0,9.44,10.7,,47.59359,-54.27349
2018-06-08 14:30:00+00:00,215.0,214.0,9.02,9.79,,47.59359,-54.27349
2018-06-08 14:40:00+00:00,217.0,221.0,9.15,9.98,,47.59359,-54.27349
2018-06-08 14:50:00+00:00,220.0,223.0,10.28,11.15,,47.59359,-54.27349
2018-06-08 15:00:00+00:00,215.0,216.0,10.12,10.75,,47.59359,-54.27349
2018-06-08 15:10:00+00:00,217.0,217.0,9.83,10.78,,47.59359,-54.27349
2018-06-08 15:20:00+00:00,216.0,217.0,10.0,10.69,,47.59359,-54.27349
2018-06-08 15:30:00+00:00,222.0,222.0,10.34,11.82,,47.59359,-54.27349
2018-06-08 15:40:00+00:00,225.0,225.0,8.72,10.13,,47.59359,-54.27349
2018-06-08 15:50:00+00:00,231.0,231.0,9.79,11.43,,47.59359,-54.27349
2018-06-08 16:00:00+00:00,230.0,228.0,10.44,11.42,,47.59359,-54.27349
2018-06-08 16:10:00+00:00,225.0,226.0,9.26,10.35,,47.59359,-54.27349
2018-06-08 16:20:00+00:00,220.0,218.0,9.25,10.26,,47.59359,-54.27349
2018-06-08 16:30:00+00:00,222.0,221.0,9.61,10.77,,47.59359,-54.27349
2018-06-08 16:40:00+00:00,223.0,226.0,10.17,11.3,,47.59359,-54.27349
2018-06-08 16:50:00+00:00,219.0,220.0,9.21,10.17,,47.59359,-54.27349
2018-06-08 17:00:00+00:00,218.0,219.0,8.01,8.82,,47.59359,-54.27349
2018-06-08 17:10:00+00:00,221.0,218.0,9.06,10.51,,47.59359,-54.27349
2018-06-08 17:20:00+00:00,224.0,225.0,9.3,10.62,,47.59359,-54.27349
2018-06-08 17:30:00+00:00,216.0,219.0,9.28,10.99,,47.59359,-54.27349
2018-06-08 17:40:00+00:00,219.0,222.0,10.61,11.83,,47.59359,-54.27349
2018-06-08 17:50:00+00:00,223.0,222.0,10.24,11.54,,47.59359,-54.27349
2018-06-08 18:00:00+00:00,227.0,230.0,10.11,11.38,,47.59359,-54.27349
2018-06-08 18:10:00+00:00,221.0,218.0,8.89,10.12,,47.59359,-54.27349
2018-06-08 18:20:00+00:00,224.0,225.0,11.13,12.16,,47.59359,-54.27349
2018-06-08 18:30:00+00:00,222.0,224.0,10.63,12.11,,47.59359,-54.27349
2018-06-08 18:40:00+00:00,220.0,216.0,9.86,11.23,,47.59359,-54.27349
2018-06-08 18:50:00+00:00,218.0,217.0,10.57,12.52,,47.59359,-54.27349
2018-06-08 19:00:00+00:00,221.0,225.0,9.6,10.93,,47.59359,-54.27349
2018-06-08 19:10:00+00:00,223.0,223.0,12.01,13.23,,47.59359,-54.27349
2018-06-08 19:20:00+00:00,224.0,227.0,12.52,14.13,,47.59359,-54.27349
2018-06-08 19:30:00+00:00,225.0,226.0,11.88,13.46,,47.59359,-54.27349
2018-06-08 19:40:00+00:00,229.0,234.0,11.74,13.26,,47.59359,-54.27349
2018-06-08 19:50:00+00:00,228.0,230.0,11.94,13.28,,47.59359,-54.27349
2018-06-08 20:00:00+00:00,230.0,230.0,11.53,13.28,,47.59359,-54.27349
2018-06-08 20:10:00+00:00,229.0,236.0,9.91,11.33,,47.59359,-54.27349
2018-06-08 20:20:00+00:00,228.0,230.0,10.67,12.67,,47.59359,-54.27349
2018-06-08 20:30:00+00:00,228.0,228.0,10.69,12.46,,47.59359,-54.27349
2018-06-08 20:40:00+00:00,227.0,227.0,10.8,12.43,,47.59359,-54.27349
2018-06-08 20:50:00+00:00,229.0,232.0,10.92,12.78,,47.59359,-54.27349
2018-06-08 21:00:00+00:00,226.0,230.0,11.83,12.8,,47.59359,-54.27349
2018-06-08 21:10:00+00:00,230.0,233.0,11.31,12.63,,47.59359,-54.27349
2018-06-08 21:20:00+00:00,231.0,232.0,11.52,12.7,,47.59359,-54.27349
2018-06-08 21:30:00+00:00,231.0,231.0,11.07,12.08,,47.59359,-54.27349
2018-06-08 21:40:00+00:00,229.0,230.0,10.79,11.81,,47.59359,-54.27349
2018-06-08 21:50:00+00:00,228.0,229.0,9.51,11.62,,47.59359,-54.27349
2018-06-08 22:00:00+00:00,232.0,238.0,10.13,11.36,,47.59359,-54.27349
2018-06-08 22:10:00+00:00,231.0,227.0,9.62,11.1,,47.59359,-54.27349
2018-06-08 22:20:00+00:00,232.0,232.0,10.18,11.3,,47.59359,-54.27349
2018-06-08 22:30:00+00:00,232.0,232.0,10.72,12.74,,47.59359,-54.27349
2018-06-08 22:40:00+00:00,230.0,227.0,10.4,11.75,,47.59359,-54.27349
2018-06-08 22:50:00+00:00,232.0,229.0,9.38,10.61,,47.59359,-54.27349
2018-06-08 23:00:00+00:00,231.0,231.0,9.8,12.23,,47.59359,-54.27349
2018-06-08 23:10:00+00:00,230.0,227.0,10.63,12.01,,47.59359,-54.27349
2018-06-08 23:20:00+00:00,230.0,231.0,10.19,11.79,,47.59359,-54.27349
2018-06-08 23:30:00+00:00,231.0,234.0,10.93,12.34,,47.59359,-54.27349
2018-06-08 23:40:00+00:00,229.0,228.0,10.67,12.09,,47.59359,-54.27349
2018-06-08 23:50:00+00:00,228.0,229.0,11.95,13.12,,47.59359,-54.27349
